This is the latest recevied weather packets stored in our database for station/object SR9SMR. If no packets are shown the sender has not sent any weather packets the latest 10 day(s).
| Time | Temp. | Humidity | Pressure | Rain* | Wind** | Luminosity | Snow |
|---|---|---|---|---|---|---|---|
| 1787390179 | 11.67° C | 100% | 898.9 hPa | - | - | - | - |
| 1787390123 | 11.67° C | 100% | 898.9 hPa | - | - | - | - |
| 1787389995 | 12.78° C | 100% | 900.2 hPa | - | - | - | - |
| 1787389866 | 12.22° C | 100% | 899.8 hPa | - | - | - | - |
| 1787389737 | 11.67° C | 100% | 899.4 hPa | - | - | - | - |
| 1787389609 | 11.67° C | 100% | 899.3 hPa | - | - | - | - |
| 1787389546 | 11.11° C | 100% | 899.7 hPa | - | - | - | - |
| 1787389495 | 11.11° C | 100% | 899.7 hPa | - | - | - | - |
| 1787389479 | 11.11° C | 100% | 901.1 hPa | - | - | - | - |
| 1787389351 | 11.67° C | 100% | 898.1 hPa | - | - | - | - |
| 1787389222 | 11.67° C | 100% | 898.3 hPa | - | - | - | - |
| 1787389104 | 11.11° C | 100% | 901.4 hPa | - | - | - | - |
| 1787388976 | 11.11° C | 100% | 901 hPa | - | - | - | - |
| 1787388913 | 11.67° C | 100% | 900.7 hPa | - | - | - | - |
| 1787388846 | 11.67° C | 100% | 899.3 hPa | - | - | - | - |
| 1787388729 | 11.67° C | 100% | 899.5 hPa | - | - | - | - |
| 1787388718 | 11.67° C | 100% | 899.7 hPa | - | - | - | - |
| 1787388589 | 11.11° C | 100% | 899.4 hPa | - | - | - | - |
| 1787388465 | 11.67° C | 100% | 899.5 hPa | - | - | - | - |
| 1787388337 | 11.11° C | 100% | 899.2 hPa | - | - | - | - |
| 1787388273 | 10.56° C | 100% | 898.8 hPa | - | - | - | - |
| 1787388207 | 10.56° C | 100% | 898.9 hPa | - | - | - | - |
| 1787388078 | 10.56° C | 100% | 897.6 hPa | - | - | - | - |
| 1787387962 | 10.56° C | 100% | 898 hPa | - | - | - | - |
| 1787387950 | 10.56° C | 100% | 899.1 hPa | - | - | - | - |
* Rain since midnight (hover to see other rain measurements)
** Current wind speed in m/s (hover to see current wind gust speed)